[[{"header":{"parameterUnit":"m.s-1","parameterCategory":1,"la1":30.2991,"la2":30.254,"lo1":-89.0895,"lo2":-89.0444,"dy":0.0017,"dx":0.0017,"nx":28,"ny":28,"refTime":"2025-08-02T21:00:00:Z","depth":0,"parameterNumber":2,"parameterNumberName":"U-component_of_WINDS"},"data":[0,0,0,0,0,0,0,0,0,0,0,0,0,0,0,0,0,0,0,0,0,0,0,0,0,0,0,0,0,0,0,0,0,0,0,0,0,0,0,0,0,0,0,0,0,0,0,0,0,0,0,0,0,0,0,0,0,0,1.2718,1.2719,0,1.2769,1.277,1.2771,1.279,1.2789,1.2789,1.2789,1.2842,1.2844,1.2845,0,0,0,0,0,0,0,0,0,0,0,0,0,1.2639,1.264,1.2718,1.2719,1.272,1.2769,1.277,1.2771,1.279,1.2789,1.2789,1.2789,1.2842,1.2844,1.2845,0,0,0,0,0,0,0,0,0,0,0,0,0,1.268,1.2641,1.2718,1.2735,1.2737,1.2769,1.277,1.2771,1.279,1.2789,1.2789,1.2789,1.2841,1.2843,1.2846,1.2865,0,0,1.2853,1.2854,0,0,0,0,0,0,0,0,1.2678,1.2683,1.2732,1.2734,1.2736,1.2773,1.2762,1.2802,1.279,1.277,1.2789,1.2789,1.2819,1.2824,1.2834,1.2867,1.287,1.2853,1.2855,1.2856,1.2856,0,0,0,0,0,0,0,1.2675,1.2681,1.2739,1.2733,1.2735,1.2741,1.2746,1.2769,1.2795,1.2771,1.2773,1.2779,1.2821,1.2831,1.2835,1.2871,1.2853,1.2855,1.2857,1.2857,1.2925,1.2925,0,0,0,0,0,0,1.2669,1.2678,1.2737,1.274,1.2706,1.2742,1.2748,1.2761,1.2795,1.28,1.2779,1.2779,1.2827,1.2832,1.2837,1.2863,1.2856,1.2858,1.2859,1.2924,1.2925,1.2925,0,0,0,0,0,0,1.2667,1.2674,1.2735,1.271,1.2718,1.2744,1.2758,1.2763,1.2773,1.2801,1.2806,1.2785,1.2827,1.2834,1.2858,1.2865,1.2859,1.2861,1.2924,1.2924,1.2925,1.2913,0,0,0,0,0,0,1.2665,1.2673,1.268,1.271,1.2719,1.2754,1.2759,1.2764,1.2777,1.2778,1.2808,1.2812,1.2828,1.2855,1.2861,1.2868,1.2863,1.2923,1.2924,1.2925,1.2913,1.2913,1.2914,0,0,0,0,0,1.2662,1.2675,1.2681,1.2687,1.2728,1.2755,1.276,1.2777,1.2778,1.2785,1.2803,1.2811,1.2863,1.2857,1.2864,1.2872,1.2923,1.2924,1.2925,1.2913,1.2913,1.2914,0,0,0,0,0,0,1.2645,1.2679,1.2686,1.2708,1.2728,1.2758,1.2768,1.2777,1.2798,1.2798,1.2819,1.2825,1.2848,1.2863,1.2855,1.2893,1.2894,1.2896,1.2883,1.2883,1.2883,1.2879,1.2865,0,0,0,0,0,1.2644,1.2662,1.2691,1.2708,1.2718,1.2741,1.2753,1.2765,1.2787,1.2796,1.2815,1.2837,1.2858,1.2872,1.2892,1.2916,1.2923,1.2925,1.2925,1.2925,1.2927,1.2941,1.2943,1.2928,1.2928,1.2928,0,0,1.2642,1.2663,1.2673,1.2705,1.2722,1.2742,1.2748,1.2768,1.2783,1.2799,1.2823,1.2839,1.2864,1.2888,1.29,1.2901,1.2933,1.2926,1.2926,1.2928,1.2942,1.2944,1.2945,1.2929,1.2928,1.2928,0,0,1.2647,1.2665,1.2681,1.2699,1.2725,1.2741,1.2745,1.2774,1.2784,1.2809,1.2822,1.2841,1.2876,1.2894,1.2908,1.2923,1.2932,1.2929,1.293,1.2944,1.2945,1.2946,1.2952,1.2954,1.2931,1.2931,1.2931,0,1.2641,1.267,1.2689,1.2708,1.2723,1.2739,1.2757,1.2773,1.2805,1.2814,1.2815,1.2862,1.288,1.2909,1.2913,1.2923,1.2929,1.2926,1.2944,1.2945,1.2946,1.2952,1.2954,1.2931,1.2931,1.2931,1.2931,0,1.2662,1.2682,1.2692,1.2723,1.2739,1.2757,1.278,1.2794,1.2805,1.282,1.2846,1.2869,1.2896,1.2904,1.2914,1.2935,1.2935,1.2939,1.294,1.2947,1.2953,1.2955,1.293,1.293,1.293,1.293,0,0,1.2656,1.2699,1.2702,1.2717,1.2748,1.2764,1.2784,1.281,1.2822,1.2844,1.2862,1.2893,1.2897,1.2913,1.2926,1.2939,1.295,1.2942,1.2943,1.2943,1.2975,1.2971,1.2974,1.2956,1.2957,1.2957,1.2973,0,1.2666,1.2702,1.2721,1.2749,1.2768,1.2785,1.2803,1.2824,1.284,1.286,1.2877,1.2899,1.2904,1.2913,1.2927,1.2946,1.2957,1.2945,1.2974,1.2974,1.2966,1.2977,1.2972,1.2986,1.2976,1.2976,1.2976,0,1.2682,1.2704,1.2734,1.2765,1.2774,1.2789,1.2815,1.2833,1.2859,1.287,1.2888,1.2901,1.2924,1.2924,1.2956,1.2948,1.2961,1.2972,1.2973,1.2976,1.2975,1.298,1.2991,1.2993,1.298,1.298,1.2979,0,1.2675,1.2713,1.2736,1.2748,1.2784,1.2795,1.281,1.2836,1.2851,1.2874,1.2884,1.291,1.2924,1.2944,1.2964,1.2962,1.2994,1.2996,1.3004,1.3004,1.301,1.3009,1.3023,1.3019,1.3019,1.3019,1.3018,0,1.2684,1.2702,1.2734,1.2748,1.2769,1.2791,1.2812,1.2829,1.2851,1.287,1.2886,1.2903,1.2929,1.295,1.2966,1.2991,1.2997,1.3007,1.3011,1.3005,1.3004,1.3014,1.3013,1.3019,1.3019,1.3019,1.3019,0,1.2679,1.2702,1.2728,1.2761,1.277,1.2784,1.2812,1.2827,1.2845,1.2868,1.2875,1.2902,1.2928,1.295,1.2984,1.2995,1.302,1.3025,1.3011,1.3013,1.3021,1.302,1.3041,1.3045,1.3038,1.3038,1.3038,0,1.2683,1.2698,1.2732,1.2746,1.2761,1.2783,1.2799,1.2822,1.2838,1.2869,1.288,1.2907,1.2929,1.2969,1.2993,1.3019,1.3025,1.3031,1.3029,1.3023,1.3025,1.3024,1.3026,1.303,1.303,1.303,1.303,0,1.2688,1.2699,1.2721,1.2747,1.2766,1.2788,1.281,1.2821,1.2848,1.2865,1.2891,1.2909,1.2944,1.297,1.2999,1.3016,1.3028,1.3031,1.3034,1.3028,1.302,1.3025,1.3011,1.303,1.303,1.303,1.303,1.303,1.2688,1.2702,1.2729,1.2754,1.2773,1.2794,1.281,1.2831,1.2853,1.2883,1.2896,1.2922,1.2949,1.299,1.3007,1.3029,1.3031,1.3035,1.3037,1.3037,1.3037,1.3017,1.3034,1.3034,1.3034,1.3034,1.3034,0,1.2693,1.2712,1.2735,1.2766,1.2786,1.2796,1.2822,1.2838,1.2861,1.2885,1.2907,1.2938,1.2965,1.2991,1.3019,1.3032,1.3038,1.3038,1.3037,1.3041,1.3033,1.3027,1.3033,1.3033,1.3033,1.3033,1.3033,1.3033,1.2698,1.2723,1.2738,1.2773,1.2792,1.2818,1.2833,1.2852,1.2872,1.2906,1.2928,1.2945,1.297,1.3001,1.3026,1.3033,1.3042,1.3041,1.305,1.3042,1.3041,1.3041,1.3036,1.3043,1.3043,1.3056,1.3056,1.3056]},{"header":{"parameterUnit":"m.s-1","parameterCategory":1,"la1":30.2991,"la2":30.254,"lo1":-89.0895,"lo2":-89.0444,"dy":0.0017,"dx":0.0017,"nx":28,"ny":28,"refTime":"2025-08-02T21:00:00:Z","depth":0,"parameterNumber":3,"parameterNumberName":"V-component_of_WINDS"},"data":[0,0,0,0,0,0,0,0,0,0,0,0,0,0,0,0,0,0,0,0,0,0,0,0,0,0,0,0,0,0,0,0,0,0,0,0,0,0,0,0,0,0,0,0,0,0,0,0,0,0,0,0,0,0,0,0,0,0,2.7126,2.7126,0,2.715,2.715,2.715,2.7181,2.7181,2.7182,2.7182,2.7202,2.7202,2.7202,0,0,0,0,0,0,0,0,0,0,0,0,0,2.7101,2.7101,2.7126,2.7126,2.7127,2.715,2.715,2.715,2.7181,2.7181,2.7182,2.7182,2.7202,2.7202,2.7202,0,0,0,0,0,0,0,0,0,0,0,0,0,2.7117,2.7101,2.7126,2.7145,2.7147,2.715,2.715,2.715,2.718,2.7181,2.7182,2.7183,2.7202,2.7202,2.7202,2.7187,0,0,2.7202,2.7202,0,0,0,0,0,0,0,0,2.7116,2.7118,2.7142,2.7143,2.7146,2.7163,2.7148,2.7163,2.718,2.7167,2.7182,2.7183,2.7188,2.7189,2.7192,2.7188,2.7189,2.7202,2.7202,2.7202,2.7203,0,0,0,0,0,0,0,2.7115,2.7117,2.7135,2.7142,2.7144,2.715,2.7153,2.7151,2.7173,2.7169,2.7171,2.7174,2.7189,2.7192,2.7193,2.7189,2.7202,2.7202,2.7203,2.7203,2.717,2.7169,0,0,0,0,0,0,2.7111,2.7116,2.7135,2.7136,2.7132,2.715,2.7153,2.7157,2.7173,2.7177,2.7173,2.7175,2.7191,2.7193,2.7194,2.7175,2.7202,2.7203,2.7203,2.7171,2.717,2.7169,0,0,0,0,0,0,2.7111,2.7113,2.7134,2.7126,2.713,2.7149,2.7153,2.7157,2.7159,2.7177,2.718,2.7172,2.7192,2.7193,2.7188,2.7176,2.7203,2.7203,2.7172,2.7171,2.717,2.7139,0,0,0,0,0,0,2.711,2.7113,2.7109,2.7126,2.713,2.713,2.7152,2.7157,2.716,2.7163,2.7177,2.7179,2.7193,2.7188,2.7188,2.7177,2.7203,2.7173,2.7172,2.717,2.7141,2.7137,2.7133,0,0,0,0,0,2.7109,2.7099,2.7109,2.7111,2.7126,2.7129,2.7131,2.7148,2.7159,2.7154,2.7164,2.7179,2.7177,2.7187,2.7188,2.7176,2.7174,2.7172,2.717,2.7143,2.7137,2.7133,0,0,0,0,0,0,2.708,2.7102,2.7113,2.7109,2.7117,2.7134,2.7129,2.7142,2.7146,2.7149,2.7168,2.717,2.7162,2.7168,2.7179,2.716,2.7178,2.7176,2.7157,2.7152,2.7148,2.7146,2.7203,0,0,0,0,0,2.7073,2.7075,2.7094,2.7089,2.7092,2.711,2.7112,2.7124,2.7132,2.7135,2.7146,2.7152,2.7152,2.7153,2.7154,2.7142,2.7143,2.7134,2.713,2.7126,2.7124,2.7114,2.7109,2.7162,2.7162,2.7162,0,0,2.7059,2.7071,2.7072,2.7083,2.7091,2.709,2.7112,2.7112,2.7111,2.7135,2.713,2.7137,2.7145,2.7136,2.7132,2.7141,2.7109,2.7124,2.7121,2.712,2.7112,2.7107,2.7102,2.7161,2.7161,2.7162,0,0,2.7033,2.7043,2.7039,2.7045,2.7057,2.7068,2.7066,2.7081,2.7087,2.7083,2.71,2.7098,2.7099,2.7103,2.7105,2.7076,2.7088,2.7076,2.7055,2.7045,2.7041,2.7037,2.7024,2.7019,2.7074,2.7074,2.7074,0,2.7013,2.7015,2.7034,2.7032,2.7035,2.7056,2.705,2.7055,2.7066,2.7066,2.7076,2.7076,2.7083,2.7073,2.7066,2.7068,2.7064,2.7075,2.704,2.7037,2.7033,2.7021,2.7017,2.7072,2.7072,2.7072,2.7073,0,2.6989,2.699,2.6984,2.6994,2.6997,2.6992,2.7008,2.7007,2.7018,2.7027,2.702,2.7029,2.7031,2.703,2.704,2.7019,2.7024,2.7037,2.7055,2.7026,2.7015,2.7011,2.707,2.707,2.7071,2.7071,0,0,2.6948,2.6966,2.6963,2.6967,2.6979,2.6979,2.6973,2.6976,2.6974,2.6979,2.6974,2.6973,2.6983,2.6986,2.6996,2.6988,2.6961,2.7001,2.7001,2.6991,2.6935,2.6924,2.6919,2.6969,2.6968,2.6967,2.6933,0,2.6923,2.6917,2.6931,2.6921,2.6919,2.6938,2.6933,2.6938,2.6945,2.6943,2.6951,2.6949,2.6965,2.6966,2.6958,2.6966,2.6949,2.6968,2.6961,2.696,2.6957,2.6913,2.6903,2.6871,2.6929,2.6928,2.6928,0,2.6894,2.6897,2.6886,2.6896,2.6896,2.6891,2.6893,2.6892,2.6897,2.6902,2.6903,2.6915,2.6907,2.6924,2.6912,2.6925,2.6922,2.6925,2.6924,2.6923,2.6942,2.6909,2.6861,2.6855,2.6922,2.6922,2.6923,0,2.6861,2.6864,2.6856,2.6859,2.6871,2.6866,2.687,2.6876,2.6876,2.6876,2.6875,2.6875,2.6874,2.6872,2.6883,2.6895,2.6868,2.6887,2.687,2.6869,2.6863,2.6863,2.6812,2.6864,2.6864,2.6864,2.6864,0,2.6831,2.6823,2.6842,2.6837,2.6827,2.6843,2.6832,2.6838,2.6842,2.6837,2.6852,2.6847,2.6861,2.6856,2.6864,2.685,2.6851,2.6853,2.6855,2.6851,2.685,2.6849,2.6851,2.6862,2.6863,2.6863,2.6863,0,2.6794,2.6807,2.68,2.681,2.6813,2.6805,2.6813,2.6807,2.6814,2.6807,2.6806,2.6817,2.6811,2.6822,2.6817,2.6822,2.6803,2.6809,2.6802,2.6803,2.6785,2.6785,2.673,2.6722,2.678,2.6779,2.6779,0,2.6774,2.6768,2.6778,2.6776,2.6779,2.6776,2.6775,2.6788,2.6786,2.6789,2.6782,2.6778,2.6776,2.6765,2.6771,2.6767,2.6772,2.6752,2.6771,2.6766,2.6769,2.6768,2.6766,2.6748,2.6747,2.6747,2.6746,0,2.6736,2.6742,2.6741,2.674,2.6739,2.6739,2.6741,2.6738,2.6751,2.6748,2.6742,2.674,2.6735,2.6729,2.6725,2.6727,2.6738,2.674,2.6736,2.6731,2.6726,2.6726,2.6789,2.6741,2.6742,2.6742,2.6743,2.6743,2.6706,2.67,2.6705,2.6702,2.6704,2.6704,2.6698,2.6704,2.67,2.6698,2.6705,2.6697,2.6698,2.6694,2.6694,2.6686,2.6694,2.6689,2.6687,2.6685,2.6681,2.6728,2.6686,2.6686,2.6686,2.6686,2.6686,0,2.6667,2.667,2.6667,2.6668,2.6665,2.6676,2.6676,2.6672,2.6665,2.6666,2.6662,2.6654,2.6647,2.6652,2.6645,2.6638,2.6642,2.6635,2.6635,2.6635,2.6675,2.6679,2.6632,2.6632,2.6632,2.6632,2.6632,2.6632,2.6646,2.6636,2.6641,2.663,2.6633,2.6626,2.6625,2.6624,2.6624,2.6614,2.6609,2.6612,2.6613,2.6606,2.6599,2.66,2.6596,2.6587,2.659,2.6627,2.6633,2.6638,2.6641,2.6587,2.6587,2.655,2.655,2.655]}]]